TimeCST,TemperatureF,Dew PointF,Humidity,Sea Level PressureIn,VisibilityMPH,Wind Direction,Wind SpeedMPH,Gust SpeedMPH,PrecipitationIn,Events,Conditions,WindDirDegrees,DateUTC
12:53 AM,33.1,26.1,75,30.34,10.0,Calm,Calm,-,N/A,,Clear,0,2012-11-19 06:53:00
1:53 AM,34.0,27.0,75,30.33,10.0,Calm,Calm,-,N/A,,Clear,0,2012-11-19 07:53:00
2:53 AM,32.0,25.0,75,30.34,10.0,Calm,Calm,-,N/A,,Clear,0,2012-11-19 08:53:00
3:53 AM,30.9,25.0,79,30.33,10.0,Calm,Calm,-,N/A,,Clear,0,2012-11-19 09:53:00
4:53 AM,30.0,25.0,82,30.34,10.0,Calm,Calm,-,N/A,,Clear,0,2012-11-19 10:53:00
5:53 AM,30.9,25.0,79,30.35,10.0,Calm,Calm,-,N/A,,Clear,0,2012-11-19 11:53:00
6:53 AM,32.0,27.0,82,30.35,10.0,Calm,Calm,-,N/A,,Clear,0,2012-11-19 12:53:00
7:53 AM,39.9,34.0,79,30.35,10.0,Calm,Calm,-,N/A,,Clear,0,2012-11-19 13:53:00
8:53 AM,46.9,37.0,68,30.35,8.0,Calm,Calm,-,N/A,,Clear,0,2012-11-19 14:53:00
9:53 AM,52.0,37.0,57,30.35,9.0,ENE,3.5,-,N/A,,Clear,70,2012-11-19 15:53:00
10:53 AM,57.0,33.1,40,30.33,10.0,Calm,Calm,-,N/A,,Clear,0,2012-11-19 16:53:00
11:53 AM,59.0,33.1,38,30.30,10.0,North,3.5,-,N/A,,Clear,350,2012-11-19 17:53:00
12:53 PM,60.1,35.1,39,30.27,10.0,Variable,3.5,-,N/A,,Clear,0,2012-11-19 18:53:00
1:53 PM,61.0,32.0,34,30.25,10.0,North,6.9,-,N/A,,Clear,360,2012-11-19 19:53:00
2:53 PM,60.1,37.0,42,30.25,10.0,WNW,5.8,-,N/A,,Clear,300,2012-11-19 20:53:00
3:53 PM,59.0,36.0,42,30.25,10.0,NNW,4.6,-,N/A,,Clear,330,2012-11-19 21:53:00
4:53 PM,54.0,36.0,51,30.24,10.0,NW,3.5,-,N/A,,Clear,310,2012-11-19 22:53:00
5:53 PM,48.0,36.0,63,30.25,10.0,Calm,Calm,-,N/A,,Clear,0,2012-11-19 23:53:00
6:53 PM,45.0,35.1,68,30.25,10.0,Calm,Calm,-,N/A,,Clear,0,2012-11-20 00:53:00
7:53 PM,42.1,34.0,73,30.25,10.0,Calm,Calm,-,N/A,,Clear,0,2012-11-20 01:53:00
8:53 PM,39.0,33.1,79,30.24,10.0,Calm,Calm,-,N/A,,Clear,0,2012-11-20 02:53:00
9:53 PM,39.0,34.0,82,30.23,10.0,Calm,Calm,-,N/A,,Clear,0,2012-11-20 03:53:00
10:53 PM,39.9,35.1,83,30.21,10.0,Calm,Calm,-,N/A,,Clear,0,2012-11-20 04:53:00
11:53 PM,41.0,36.0,82,30.19,10.0,Calm,Calm,-,N/A,,Partly Cloudy,0,2012-11-20 05:53:00